Regional Weather Roundup
Issued by NWS

Home | Current Version | Previous Version | Graphics & Text | Print | Product List | Glossary On
Versions: 1 2 3 4 5 6 7 8 9 10 11 12 13 14 15 16 17 18 19 20 21 22 23 24 25 26 27 28 29 30 31 32 33 34 35 36 37 38 39 40 41 42 43 44 45 46 47 48 49 50
000
ASUS43 KFSD 241110
RWRSD

WEATHER ROUNDUP FOR SOUTH DAKOTA
NATIONAL WEATHER SERVICE SIOUX FALLS SD
600 AM CDT SUN SEP 24 2017

NOTE: "FAIR" INDICATES FEW OR NO CLOUDS BELOW 12,000 FEET WITH NO
SIGNIFICANT WEATHER AND/OR OBSTRUCTIONS TO VISIBILITY.


SDZ001>005-009-010-012>017-241200-
NORTHWEST AND NORTH CENTRAL SOUTH DAKOTA

CITY           SKY/WX    TMP DP  RH WIND       PRES   REMARKS
BUFFALO          N/A     45  43  93 N10       29.96F
FAITH            N/A     45  45 100 N14       29.93F
MOBRIDGE       LGT RAIN  51  49  92 N16       29.89F
$$

SDZ012>016-024>037-041>051-057-063-072>074-241200-
SOUTHWEST AND SOUTH CENTRAL SOUTH DAKOTA

CITY           SKY/WX    TMP DP  RH WIND       PRES   REMARKS
RAPID CTY ARPT NOT AVBL
PIERRE         LGT RAIN  52  51  97 NW9       29.88S FOG
CUSTER         CLOUDY    39  36  89 N9        29.98S
PHILIP         CLOUDY    48  48 100 NW10      29.94R
PINE RIDGE     CLOUDY    46  46 100 N7        29.98R
SPEARFISH      FOG       41  41 100 NW8       30.01F VSB 1/2
WINNER         LGT RAIN  52  51  97 NW10      29.88F
$$

SDZ004>011-016>023-039-040-241200-
NORTHEAST SOUTH DAKOTA

CITY           SKY/WX    TMP DP  RH WIND       PRES   REMARKS
ABERDEEN       LGT RAIN  54  54 100 NE8       29.84F
WATERTOWN      CLOUDY    61  61 100 CALM      29.86F
BROOKINGS      MOCLDY    62  60  93 SE9       29.86F
SISSETON         N/A     61  61 100 SE5       29.85F
$$

SDZ017-020-022-023-036>040-048>070-241200-
SOUTHEAST SOUTH DAKOTA

CITY           SKY/WX    TMP DP  RH WIND       PRES   REMARKS
SIOUX FALLS    CLOUDY    70  65  84 S13       29.86S
HURON          CLOUDY    57  56  96 CALM      29.85S
CHAMBERLAIN    RAIN      54  54 100 NW5       29.88F
MITCHELL       CLOUDY    57  57 100 CALM      29.87R FOG
YANKTON        FOG       57  57 100 E3        29.87S VSB 3/4
$$

ABBREVIATIONS USED IN REMARKS
   TC - TEMPERATURE IN CELSIUS
  WCI - WIND CHILL INDEX
   HX - HEAT INDEX
  VSB - VISIBILITY




USA.gov is the U.S. government's official web portal to all federal, state and local government web resources and services.